Location: Powder Track
(41.8531°N, 72.3584°W)
Time: 09:27:57
(UTC+00:00)

Transit 4A - Pass Details

Date: 12 August 2021
Orbit: 871 x 974 km, 66.8° (Epoch: 20 September)

Event Time Altitude Azimuth Distance (km) Brightness Sun altitude
Rises 12:37:20 0° 313° (NW) 3,495 10.5 28.9°
Reaches altitude 10° 12:40:38 10° 295° (WNW) 2,567 9.8 29.5°
Maximum altitude 12:44:21 17° 256° (WSW) 2,103 9.4 30.2°
Drops below altitude 10° 12:48:07 10° 217° (SW) 2,599 10.1 30.9°
Sets 12:51:31 0° 198° (SSW) 3,558 10.9 31.5°
